Regional Weather Roundup
Issued by NWS

Home | Current Version | Previous Version | Graphics & Text | Print | Product List | Glossary On
Versions: 1 2 3 4 5 6 7 8 9 10 11 12 13 14 15 16 17 18 19 20 21 22 23 24 25 26 27 28 29 30 31 32 33 34 35 36 37 38 39 40 41 42 43 44 45 46 47 48 49 50
000
ASUS43 KDMX 041907
RWRIA

WEATHER ROUNDUP FOR IOWA
NATIONAL WEATHER SERVICE DES MOINES IA
200 PM CDT SAT JUL 04 2015

NOTE: "FAIR" INDICATES FEW OR NO CLOUDS BELOW 12,000 FEET WITH NO
SIGNIFICANT WEATHER AND/OR OBSTRUCTIONS TO VISIBILITY.

* - THESE STATIONS ARE NOT NWS STATIONS...THUS NOT UNDER NWS
QUALITY CONTROL.  THEY ALSO DO NOT REPORT WEATHER SUCH
AS PRECIPITATION OR FOG.

IAZ001>003-012>014-020>022-031>034-043>046-042000-
   NORTHWEST IOWA

CITY           SKY/WX    TMP DP  RH WIND       PRES   REMARKS
CARROLL *      SUNNY     79  57  47 S10       29.99F HX  80
CHEROKEE *     MOSUNNY   77  64  65 S5        29.98S
DENISON *      SUNNY     77  59  53 S8        29.97S
LE MARS *      MOSUNNY   79  66  65 S13       29.97S HX  81
ORANGE CITY *  SUNNY     75  63  64 S9        29.97F
SHELDON *      SUNNY     79  68  69 S12       29.96S HX  81
SIOUX CITY     MOSUNNY   81  64  56 SW9       29.96S HX  82
SPENCER        MOSUNNY   81  62  52 S9        29.98S HX  82
STORM LAKE *   SUNNY     77  61  57 SW10      30.00S
$$

IAZ055>058-069>071-079>083-090>094-042000-
   SOUTHWEST IOWA

CITY           SKY/WX    TMP DP  RH WIND       PRES   REMARKS
ATLANTIC *     SUNNY     79  59  50 S8        29.99F HX  80
AUDUBON *      SUNNY     79  63  57 S7        30.01S HX  80
CLARINDA *     SUNNY     81  59  47 CALM      30.01S HX  81
COUNCIL BLFS * SUNNY     79  61  53 S12       29.99F HX  80
CRESTON *      SUNNY     77  57  50 S8        30.01S
HARLAN  *      SUNNY     77  61  57 S9        30.02F
LAMONI         SUNNY     80  57  45 S7        30.01F HX  80
RED OAK *      SUNNY     81  59  47 S10G16    30.00S HX  81
SHENANDOAH *   SUNNY     81  61  50 S8G15     30.00S HX  81
$$

IAZ047>049-059>061-072>074-084-042000-
   CENTRAL IOWA

CITY           SKY/WX    TMP DP  RH WIND       PRES   REMARKS
AMES           SUNNY     79  59  50 S9        30.00F HX  80
ANKENY *       SUNNY     79  61  53 S7        29.99F HX  80
CHARITON *     SUNNY     79  59  50 S6        30.01F HX  80
DES MOINES     MOSUNNY   81  57  43 S8        29.99F HX  81
GRINNELL*      MOSUNNY   77  61  57 S7        30.02F
KNOXVILLE *    SUNNY     79  59  50 S6        30.00S HX  80
MARSHALLTOWN   SUNNY     78  61  55 S7        30.00F HX  80
PELLA *        SUNNY     81  63  54 S6        30.02S HX  82
PERRY *          N/A     79  57  47 S5        29.99F HX  80
$$

IAZ004>006-015-016-023>025-035-036-042000-
   NORTH CENTRAL IOWA

CITY           SKY/WX    TMP DP  RH WIND       PRES   REMARKS
ALGONA *       SUNNY     79  61  53 S12       29.99S HX  80
CLARION *      SUNNY     79  57  47 SW10G16   30.00S HX  80
ESTHERVILLE    MOSUNNY   78  63  59 S9        29.97F HX  80
FORT DODGE *   SUNNY     79  57  47 S8        30.00F HX  80
MASON CITY     SUNNY     80  62  54 SW10G17   30.01S HX  81
FOREST CITY *  SUNNY     77  59  53 S10       29.99S
IOWA FALLS *     N/A     79  61  53 S7        30.01F HX  80
$$

IAZ007>011-017>019-026>030-037>042-050>054-066-042000-
   NORTHEAST IOWA

CITY           SKY/WX    TMP DP  RH WIND       PRES   REMARKS
CEDAR RAPIDS   PTSUNNY   77  64  64 S7        30.01S
CHARLES CITY * MOSUNNY   77  64  65 S10       30.01S
CLINTON *      MOSUNNY   79  61  53 SW9       30.04S HX  80
DECORAH *        N/A    N/A N/A N/A MISG        N/A
DUBUQUE        MOSUNNY   77  59  53 S6        30.01F
MONTICELLO *   MOSUNNY   79  61  53 VRB7G14   30.00S HX  80
OELWEIN *      SUNNY     77  61  57 SW9G15    30.01S
WATERLOO       SUNNY     80  58  46 S9        29.99F HX  80
$$

IAZ064-065-067-068-078-042000-
   EAST CENTRAL IOWA

CITY           SKY/WX    TMP DP  RH WIND       PRES   REMARKS
DAVENPORT      SUNNY     78  60  53 W6        30.02S
IOWA CITY      MOSUNNY   79  61  53 S8        30.02S HX  80
MT. PLEASANT * SUNNY     81  55  41 S6        30.02S HX  80
MUSCATINE *    SUNNY     81  57  44 S7        30.01F HX  81
QUAD CITIES    SUNNY     79  59  50 SW6       30.01S HX  80
$$

IAZ062-063-075>077-085>089-095>099-042000-
   SOUTHEAST IOWA

CITY           SKY/WX    TMP DP  RH WIND       PRES   REMARKS
BURLINGTON     SUNNY     79  62  56 SW6       30.01F HX  80
FAIRFIELD *    SUNNY     77  59  53 VRB6      30.02S
FORT MADISON * SUNNY     79  63  57 S3        30.03S HX  80
KEOKUK *       SUNNY     79  59  50 VRB6      30.01S HX  80
OSKALOOSA *      N/A     77  61  57 S7        30.02S
CENTERVILLE *  SUNNY     77  59  53 CALM      30.04S
OTTUMWA        SUNNY     77  62  59 S6        30.00F
WASHINGTON *   SUNNY     79  59  50 CALM      30.03S HX  80
$$

ABBREVIATIONS USED IN REMARKS
   TC - TEMPERATURES IN CELSIUS
  WCI - WIND CHILL INDEX
   HX - HEAT INDEX
  VSB - VISIBILITY
$$




USA.gov is the U.S. government's official web portal to all federal, state and local government web resources and services.